[[{"header":{"parameterUnit":"m.s-1","parameterCategory":1,"la1":30.2991,"la2":30.254,"lo1":-89.0895,"lo2":-89.0444,"dy":0.0017,"dx":0.0017,"nx":28,"ny":28,"refTime":"2025-04-21T03:00:00:Z","depth":0,"parameterNumber":2,"parameterNumberName":"U-component_of_WINDS"},"data":[0,0,0,0,0,0,0,0,0,0,0,0,0,0,0,0,0,0,0,0,0,0,0,0,0,0,0,0,0,0,0,0,0,0,0,0,0,0,0,0,0,0,0,0,0,0,0,0,0,0,0,0,0,0,0,0,0,0,-2.0528,-2.0528,0,-2.0536,-2.0536,-2.0536,-2.0533,-2.0532,-2.0532,-2.0532,-2.0542,-2.0543,-2.0543,0,0,0,0,0,0,0,0,0,0,0,0,0,-2.051,-2.051,-2.0528,-2.0528,-2.0528,-2.0536,-2.0536,-2.0536,-2.0533,-2.0532,-2.0532,-2.0532,-2.0542,-2.0543,-2.0543,0,0,0,0,0,0,0,0,0,0,0,0,0,-2.0518,-2.051,-2.0527,-2.0527,-2.0527,-2.0536,-2.0536,-2.0536,-2.0533,-2.0532,-2.0532,-2.0532,-2.0542,-2.0543,-2.0544,-2.0554,0,0,-2.0546,-2.0546,0,0,0,0,0,0,0,0,-2.0517,-2.0519,-2.0527,-2.0527,-2.0527,-2.0533,-2.0534,-2.0542,-2.0533,-2.0531,-2.0532,-2.0532,-2.054,-2.0541,-2.0543,-2.0555,-2.0555,-2.0546,-2.0546,-2.0546,-2.0547,0,0,0,0,0,0,0,-2.0517,-2.0518,-2.0531,-2.0527,-2.0527,-2.0527,-2.0528,-2.0535,-2.0537,-2.0531,-2.0531,-2.0532,-2.054,-2.0542,-2.0543,-2.0555,-2.0546,-2.0546,-2.0547,-2.0547,-2.0577,-2.0577,0,0,0,0,0,0,-2.0516,-2.0518,-2.0531,-2.0531,-2.0521,-2.0527,-2.0528,-2.0531,-2.0537,-2.0537,-2.0532,-2.0531,-2.0541,-2.0542,-2.0544,-2.0556,-2.0546,-2.0547,-2.0548,-2.0577,-2.0577,-2.0578,0,0,0,0,0,0,-2.0516,-2.0517,-2.053,-2.0524,-2.0526,-2.0528,-2.0532,-2.0532,-2.0534,-2.0538,-2.0538,-2.0534,-2.0541,-2.0543,-2.0552,-2.0557,-2.0547,-2.0548,-2.0576,-2.0577,-2.0577,-2.0582,0,0,0,0,0,0,-2.0515,-2.0517,-2.0521,-2.0524,-2.0526,-2.0538,-2.0532,-2.0532,-2.0535,-2.0535,-2.054,-2.054,-2.0541,-2.0551,-2.0552,-2.0557,-2.0549,-2.0576,-2.0576,-2.0577,-2.0581,-2.0583,-2.0584,0,0,0,0,0,-2.0515,-2.0522,-2.0521,-2.0522,-2.0531,-2.0538,-2.0539,-2.0539,-2.0536,-2.054,-2.0542,-2.054,-2.0556,-2.0552,-2.0553,-2.0559,-2.0575,-2.0576,-2.0577,-2.0581,-2.0583,-2.0584,0,0,0,0,0,0,-2.0519,-2.0522,-2.0521,-2.053,-2.0534,-2.0537,-2.0542,-2.0541,-2.0546,-2.0545,-2.0546,-2.0547,-2.0556,-2.0559,-2.0554,-2.057,-2.0565,-2.0567,-2.0568,-2.0569,-2.057,-2.0569,-2.0549,0,0,0,0,0,-2.0521,-2.0526,-2.0529,-2.0536,-2.0538,-2.054,-2.0543,-2.0543,-2.0547,-2.0549,-2.0551,-2.0556,-2.0562,-2.0566,-2.0572,-2.0582,-2.0583,-2.0587,-2.0588,-2.0589,-2.059,-2.0596,-2.0598,-2.058,-2.058,-2.058,0,0,-2.0525,-2.0528,-2.0531,-2.0537,-2.054,-2.0546,-2.0541,-2.0547,-2.0552,-2.055,-2.0558,-2.0561,-2.0566,-2.0576,-2.058,-2.0578,-2.0595,-2.059,-2.0591,-2.0591,-2.0597,-2.0599,-2.06,-2.0581,-2.0581,-2.0581,0,0,-2.0535,-2.0538,-2.0544,-2.0547,-2.0551,-2.0553,-2.0554,-2.0558,-2.056,-2.0568,-2.0567,-2.0573,-2.0583,-2.0587,-2.059,-2.0602,-2.0601,-2.0605,-2.061,-2.0616,-2.0617,-2.0619,-2.0623,-2.0624,-2.0606,-2.0606,-2.0606,0,-2.054,-2.0548,-2.0548,-2.0554,-2.0557,-2.0555,-2.0562,-2.0565,-2.0572,-2.0574,-2.0572,-2.0585,-2.0588,-2.0599,-2.0602,-2.0605,-2.0607,-2.0603,-2.0617,-2.0618,-2.0619,-2.0623,-2.0625,-2.0606,-2.0606,-2.0606,-2.0606,0,-2.0553,-2.0559,-2.0563,-2.0569,-2.0573,-2.0579,-2.0581,-2.0585,-2.0585,-2.0587,-2.0596,-2.06,-2.0606,-2.0609,-2.0609,-2.062,-2.0619,-2.0617,-2.0612,-2.0621,-2.0625,-2.0627,-2.0606,-2.0606,-2.0606,-2.0606,0,0,-2.0565,-2.0571,-2.0573,-2.0575,-2.058,-2.0585,-2.0592,-2.0598,-2.0601,-2.0606,-2.0612,-2.0621,-2.0619,-2.0623,-2.0624,-2.0629,-2.0639,-2.0627,-2.0627,-2.0628,-2.0651,-2.0652,-2.0653,-2.0638,-2.0639,-2.0639,-2.065,0,-2.0575,-2.0586,-2.0587,-2.0597,-2.0602,-2.0602,-2.0608,-2.0612,-2.0614,-2.0619,-2.0622,-2.0628,-2.0626,-2.0628,-2.0633,-2.0636,-2.0643,-2.0636,-2.0644,-2.0644,-2.0641,-2.0655,-2.0656,-2.0667,-2.0652,-2.0652,-2.0652,0,-2.0588,-2.0592,-2.0603,-2.0608,-2.061,-2.0615,-2.0621,-2.0626,-2.0631,-2.0632,-2.0637,-2.0637,-2.0645,-2.0641,-2.0652,-2.0647,-2.0651,-2.0653,-2.0653,-2.0653,-2.0648,-2.0655,-2.067,-2.0671,-2.0655,-2.0654,-2.0654,0,-2.0595,-2.0604,-2.0611,-2.0614,-2.0619,-2.0623,-2.0626,-2.063,-2.0634,-2.064,-2.0642,-2.0649,-2.0652,-2.0658,-2.066,-2.0657,-2.0671,-2.0667,-2.0673,-2.0673,-2.0675,-2.0674,-2.069,-2.0679,-2.0679,-2.0679,-2.0678,0,-2.0605,-2.0612,-2.0614,-2.0619,-2.0626,-2.0628,-2.0635,-2.0638,-2.0643,-2.0648,-2.0649,-2.0654,-2.0657,-2.0663,-2.0665,-2.0674,-2.0676,-2.0677,-2.0678,-2.0677,-2.0676,-2.0678,-2.0677,-2.0679,-2.0679,-2.0679,-2.0679,0,-2.0614,-2.0616,-2.0624,-2.0629,-2.063,-2.0635,-2.064,-2.0645,-2.0647,-2.0654,-2.0656,-2.066,-2.0667,-2.067,-2.068,-2.0681,-2.0691,-2.0691,-2.0689,-2.0689,-2.0694,-2.0693,-2.071,-2.0712,-2.07,-2.0701,-2.0701,0,-2.062,-2.0625,-2.063,-2.0633,-2.0636,-2.0642,-2.0646,-2.0648,-2.0652,-2.0658,-2.0662,-2.067,-2.0675,-2.0687,-2.0691,-2.0698,-2.0698,-2.0704,-2.0699,-2.0698,-2.0698,-2.0697,-2.0698,-2.0704,-2.0704,-2.0705,-2.0705,0,-2.063,-2.0631,-2.0636,-2.0642,-2.0646,-2.0651,-2.0656,-2.0659,-2.0662,-2.0666,-2.0673,-2.0678,-2.0687,-2.0694,-2.0702,-2.0705,-2.0706,-2.0706,-2.0708,-2.0706,-2.0705,-2.0705,-2.069,-2.0706,-2.0705,-2.0705,-2.0705,-2.0705,-2.0637,-2.0642,-2.0646,-2.0652,-2.0655,-2.066,-2.0665,-2.0668,-2.0673,-2.068,-2.0682,-2.0689,-2.0695,-2.0705,-2.0709,-2.0716,-2.0715,-2.0717,-2.0717,-2.0718,-2.0718,-2.0704,-2.0717,-2.0717,-2.0717,-2.0717,-2.0717,0,-2.0647,-2.065,-2.0656,-2.0662,-2.0666,-2.0666,-2.0672,-2.0676,-2.0682,-2.0687,-2.0693,-2.0701,-2.0709,-2.0714,-2.0721,-2.0725,-2.0726,-2.0727,-2.0726,-2.0727,-2.0719,-2.0716,-2.0727,-2.0727,-2.0727,-2.0727,-2.0727,-2.0727,-2.0653,-2.066,-2.0662,-2.0671,-2.0674,-2.0681,-2.0684,-2.0688,-2.0692,-2.0701,-2.0707,-2.071,-2.0716,-2.0724,-2.0731,-2.0732,-2.0735,-2.0736,-2.0737,-2.0729,-2.0728,-2.0727,-2.0725,-2.0737,-2.0737,-2.0745,-2.0746,-2.0746]},{"header":{"parameterUnit":"m.s-1","parameterCategory":1,"la1":30.2991,"la2":30.254,"lo1":-89.0895,"lo2":-89.0444,"dy":0.0017,"dx":0.0017,"nx":28,"ny":28,"refTime":"2025-04-21T03:00:00:Z","depth":0,"parameterNumber":3,"parameterNumberName":"V-component_of_WINDS"},"data":[0,0,0,0,0,0,0,0,0,0,0,0,0,0,0,0,0,0,0,0,0,0,0,0,0,0,0,0,0,0,0,0,0,0,0,0,0,0,0,0,0,0,0,0,0,0,0,0,0,0,0,0,0,0,0,0,0,0,4.0178,4.0178,0,4.0161,4.016,4.016,4.0111,4.011,4.0109,4.0108,4.0091,4.0091,4.0092,0,0,0,0,0,0,0,0,0,0,0,0,0,4.017,4.017,4.0178,4.0178,4.0178,4.0161,4.016,4.016,4.0111,4.011,4.0109,4.0108,4.0091,4.0091,4.0092,0,0,0,0,0,0,0,0,0,0,0,0,0,4.0165,4.017,4.0178,4.0151,4.0149,4.0161,4.016,4.016,4.0112,4.011,4.0108,4.0107,4.009,4.0091,4.0092,4.0129,0,0,4.0094,4.0095,0,0,0,0,0,0,0,0,4.0165,4.0165,4.0155,4.0153,4.015,4.0136,4.0151,4.015,4.0112,4.0126,4.0108,4.0106,4.0107,4.0107,4.0107,4.0128,4.0127,4.0094,4.0095,4.0095,4.0095,0,0,0,0,0,0,0,4.0166,4.0166,4.0171,4.0155,4.0152,4.014,4.0138,4.0151,4.0126,4.0124,4.0121,4.0119,4.0106,4.0106,4.0106,4.0127,4.0094,4.0095,4.0096,4.0096,4.0179,4.0181,0,0,0,0,0,0,4.017,4.0167,4.0172,4.0171,4.0154,4.0142,4.0139,4.0143,4.0125,4.0121,4.0121,4.0117,4.0106,4.0105,4.0105,4.0149,4.0095,4.0096,4.0096,4.0177,4.018,4.0181,0,0,0,0,0,0,4.017,4.0171,4.0172,4.0168,4.0167,4.0144,4.0148,4.0143,4.0144,4.0123,4.0118,4.0126,4.0104,4.0104,4.0124,4.0148,4.0096,4.0097,4.0175,4.0178,4.018,4.0236,0,0,0,0,0,0,4.017,4.0171,4.0185,4.0168,4.0167,4.0191,4.0149,4.0144,4.0145,4.014,4.0126,4.0123,4.0103,4.0123,4.0124,4.0148,4.0098,4.0173,4.0177,4.018,4.0232,4.024,4.0247,0,0,0,0,0,4.017,4.0201,4.0186,4.0187,4.0184,4.0193,4.0192,4.0169,4.0147,4.0161,4.0148,4.0123,4.0144,4.0125,4.0127,4.0151,4.0172,4.0176,4.0179,4.0228,4.0238,4.0246,0,0,0,0,0,0,4.0221,4.0198,4.0181,4.0208,4.0202,4.0184,4.0201,4.018,4.0181,4.0176,4.0148,4.0145,4.0169,4.0161,4.014,4.0186,4.0154,4.0158,4.0191,4.02,4.0207,4.0209,4.0098,0,0,0,0,0,4.0235,4.0244,4.0223,4.0249,4.0247,4.0225,4.0227,4.021,4.0204,4.0201,4.0189,4.0184,4.019,4.0194,4.0198,4.023,4.0227,4.0247,4.0254,4.0261,4.0265,4.0283,4.0293,4.0194,4.0194,4.0194,0,0,4.0264,4.0253,4.026,4.0259,4.0252,4.0263,4.0223,4.0235,4.0243,4.0203,4.0221,4.0212,4.0204,4.0231,4.0242,4.0225,4.0292,4.0266,4.0271,4.0272,4.0288,4.0298,4.0306,4.0197,4.0196,4.0196,0,0,4.0324,4.0316,4.0337,4.0332,4.0323,4.0308,4.0313,4.0298,4.0291,4.0308,4.0279,4.0288,4.0297,4.0294,4.0293,4.0352,4.033,4.0354,4.0394,4.0412,4.042,4.0427,4.045,4.0458,4.0358,4.0359,4.0359,0,4.0362,4.0377,4.035,4.0365,4.0366,4.033,4.0351,4.0347,4.0341,4.0342,4.0323,4.0336,4.0328,4.0354,4.0368,4.0368,4.0374,4.0356,4.0421,4.0428,4.0433,4.0455,4.0464,4.0362,4.0361,4.0361,4.0361,0,4.0425,4.0435,4.0453,4.0448,4.045,4.0468,4.0445,4.0451,4.0433,4.042,4.044,4.0429,4.0431,4.0435,4.0418,4.0459,4.0449,4.0426,4.0394,4.0446,4.0466,4.0474,4.0366,4.0365,4.0364,4.0363,0,0,4.0517,4.0497,4.0505,4.0502,4.049,4.0498,4.0514,4.0516,4.0523,4.0519,4.0533,4.0542,4.0521,4.0521,4.0502,4.0518,4.0568,4.0493,4.0492,4.0509,4.0614,4.0633,4.0643,4.0552,4.0553,4.0555,4.0616,0,4.0575,4.0603,4.058,4.0612,4.0622,4.0588,4.0603,4.0597,4.0586,4.0593,4.0579,4.0588,4.0558,4.0558,4.0571,4.0559,4.0589,4.0554,4.0566,4.0567,4.0572,4.0653,4.0673,4.0732,4.0623,4.0624,4.0625,0,4.0647,4.0647,4.0681,4.0668,4.0671,4.0685,4.0685,4.0692,4.0685,4.0675,4.0675,4.0653,4.0669,4.0636,4.0658,4.0635,4.0639,4.0633,4.0635,4.0637,4.0601,4.066,4.0749,4.0759,4.0637,4.0636,4.0635,0,4.0714,4.0722,4.0744,4.0743,4.0727,4.0738,4.0732,4.0723,4.0726,4.0726,4.0728,4.073,4.0732,4.0734,4.0713,4.0691,4.0739,4.0704,4.0733,4.0734,4.0747,4.0747,4.0841,4.0746,4.0745,4.0745,4.0745,0,4.0783,4.0805,4.0774,4.0787,4.0812,4.0785,4.0809,4.08,4.0793,4.0804,4.0774,4.0786,4.0756,4.0765,4.0749,4.0771,4.0771,4.0765,4.0761,4.0769,4.077,4.0773,4.0769,4.0747,4.0747,4.0747,4.0746,0,4.0863,4.0842,4.0864,4.0847,4.0844,4.0863,4.0849,4.0861,4.0847,4.0862,4.0864,4.0842,4.0851,4.083,4.0835,4.0824,4.0857,4.0845,4.0859,4.0857,4.0888,4.0886,4.0989,4.1002,4.0896,4.0897,4.0898,0,4.0909,4.0926,4.0911,4.0917,4.0912,4.0921,4.0924,4.0898,4.0903,4.0897,4.091,4.0916,4.092,4.0935,4.092,4.0925,4.0914,4.0949,4.0915,4.0923,4.0917,4.0918,4.092,4.0958,4.0959,4.096,4.0961,0,4.0995,4.0984,4.0989,4.0991,4.0996,4.0996,4.0994,4.1001,4.0973,4.0979,4.0988,4.0991,4.0997,4.1004,4.1005,4.0999,4.0976,4.0971,4.0979,4.0989,4.0998,4.0996,4.0882,4.097,4.0969,4.0968,4.0968,4.0967,4.1061,4.1074,4.1067,4.1074,4.107,4.1069,4.108,4.1068,4.1074,4.1077,4.1061,4.1073,4.1067,4.1066,4.1062,4.1072,4.1056,4.1066,4.1069,4.1073,4.1079,4.0994,4.1072,4.1071,4.1071,4.1071,4.1071,0,4.1147,4.114,4.1147,4.1146,4.1152,4.1128,4.1125,4.1132,4.1144,4.1139,4.1143,4.1154,4.1161,4.1146,4.1151,4.1162,4.1151,4.1164,4.1164,4.1164,4.1092,4.1086,4.1172,4.1172,4.1172,4.1172,4.1172,4.1172,4.1192,4.1215,4.1203,4.1224,4.1216,4.1229,4.1229,4.1229,4.1225,4.1238,4.1244,4.1234,4.1226,4.123,4.1235,4.1231,4.1235,4.1252,4.1244,4.1178,4.1168,4.1159,4.1154,4.1252,4.1252,4.1315,4.1316,4.1316]}]]